When you browse on this site, cookies collect data to enhance your experience and personalize the content and advertising you see.
Visit our Privacy Policy to learn more. By continuing to use the site, you agree to this use of cookies and data.
  • In Latvia
  • List of Countries
  • For 7 days
  • Water Temperature
  • Weather Map
  • Weather Widgets
  • user-avatar
    Login

    Hourly Weather Ganja

    Today, 20 January, Monday

    Time Temperature Precipitation Wind Pressure Humidity
    00:00 +1°C° 0.1 mm 2 mps 732 mmHg 96%
    01:00 +1°C° 0.2 mm 1 mps 733 mmHg 96%
    02:00 +1°C° 0.2 mm 1 mps 733 mmHg 96%
    03:00 +1°C° 0 mm 1 mps 733 mmHg 96%
    04:00 +1°C° 0.1 mm 1 mps 733 mmHg 95%
    05:00 +1°C° 0.1 mm 1 mps 733 mmHg 95%
    06:00 +1°C° 0.1 mm 1 mps 733 mmHg 94%
    07:00 +1°C° 0 mm 1 mps 733 mmHg 92%
    08:00 +1°C° 0 mm 1 mps 733 mmHg 91%
    09:00 +1°C° 0 mm 1 mps 733 mmHg 89%
    10:00 +2°C° 0 mm 1 mps 732 mmHg 86%
    11:00 +2°C° 0 mm 1 mps 732 mmHg 83%
    12:00 +2°C° 0 mm 2 mps 732 mmHg 80%
    13:00 +2°C° 0 mm 2 mps 732 mmHg 78%
    14:00 +3°C° 0 mm 1 mps 731 mmHg 76%
    15:00 +3°C° 0 mm 1 mps 731 mmHg 75%
    16:00 +3°C° 0 mm 1 mps 731 mmHg 76%
    17:00 +3°C° 0 mm 1 mps 731 mmHg 77%
    18:00 +2°C° 0 mm 1 mps 731 mmHg 78%
    19:00 +2°C° 0 mm 1 mps 731 mmHg 79%
    20:00 +2°C° 0 mm 1 mps 732 mmHg 80%
    21:00 +2°C° 0 mm 1 mps 732 mmHg 80%
    22:00 +1°C° 0 mm 0 mps 732 mmHg 80%
    23:00 +1°C° 0 mm 0 mps 731 mmHg 80%

    Tomorrow, 21 January, Tuesday

    Time Temperature Precipitation Wind Pressure Humidity
    00:00 +1°C° 0 mm 0 mps 731 mmHg 81%
    01:00 0°C° 0 mm 0 mps 731 mmHg 80%
    02:00 +1°C° 0 mm 1 mps 731 mmHg 80%
    03:00 +1°C° 0 mm 1 mps 731 mmHg 80%
    04:00 +1°C° 0 mm 1 mps 731 mmHg 79%
    05:00 +1°C° 0 mm 1 mps 731 mmHg 79%
    06:00 0°C° 0 mm 1 mps 730 mmHg 79%
    07:00 +1°C° 0 mm 1 mps 730 mmHg 75%
    08:00 +2°C° 0 mm 1 mps 731 mmHg 71%
    09:00 +2°C° 0 mm 0 mps 731 mmHg 67%
    10:00 +4°C° 0 mm 1 mps 730 mmHg 65%
    11:00 +4°C° 0 mm 1 mps 730 mmHg 64%
    12:00 +5°C° 0 mm 1 mps 730 mmHg 62%
    13:00 +5°C° 0 mm 1 mps 730 mmHg 61%
    14:00 +6°C° 0 mm 1 mps 730 mmHg 60%
    15:00 +6°C° 0 mm 1 mps 729 mmHg 58%
    16:00 +5°C° 0 mm 1 mps 730 mmHg 60%
    17:00 +5°C° 0 mm 1 mps 730 mmHg 62%
    18:00 +3°C° 0 mm 2 mps 730 mmHg 63%
    19:00 +3°C° 0 mm 2 mps 731 mmHg 64%
    20:00 +2°C° 0 mm 2 mps 731 mmHg 66%
    21:00 +3°C° 0 mm 1 mps 731 mmHg 67%
    22:00 +2°C° 0 mm 1 mps 731 mmHg 68%
    23:00 +2°C° 0 mm 1 mps 731 mmHg 70%

    Day after tomorrow, 22 January, Wednesday

    Time Temperature Precipitation Wind Pressure Humidity
    00:00 +2°C° 0 mm 1 mps 731 mmHg 72%
    01:00 +2°C° 0 mm 1 mps 731 mmHg 72%
    02:00 +2°C° 0 mm 1 mps 731 mmHg 72%
    03:00 -1°C° 0 mm 2 mps 731 mmHg 72%
    04:00 -1°C° 0 mm 2 mps 731 mmHg 71%
    05:00 -1°C° 0 mm 2 mps 730 mmHg 71%
    06:00 -1°C° 0 mm 2 mps 730 mmHg 70%
    07:00 +1°C° 0 mm 2 mps 730 mmHg 67%
    08:00 +2°C° 0 mm 2 mps 730 mmHg 63%
    09:00 +3°C° 0 mm 2 mps 730 mmHg 59%
    10:00 +3°C° 0 mm 2 mps 730 mmHg 57%
    11:00 +3°C° 0 mm 3 mps 729 mmHg 55%
    12:00 +4°C° 0 mm 3 mps 728 mmHg 53%
    13:00 +4°C° 0 mm 3 mps 728 mmHg 51%
    14:00 +5°C° 0 mm 4 mps 727 mmHg 50%
    15:00 +5°C° 0 mm 4 mps 727 mmHg 49%
    16:00 +4°C° 0 mm 4 mps 727 mmHg 52%
    17:00 +3°C° 0 mm 3 mps 727 mmHg 54%
    18:00 +2°C° 0 mm 3 mps 727 mmHg 57%
    19:00 +2°C° 0 mm 3 mps 727 mmHg 57%
    20:00 +3°C° 0 mm 2 mps 726 mmHg 58%
    21:00 +2°C° 0 mm 2 mps 726 mmHg 58%
    22:00 +1°C° 0 mm 3 mps 726 mmHg 58%
    23:00 +1°C° 0 mm 3 mps 726 mmHg 59%

    23 January, Thursday

    Time Temperature Precipitation Wind Pressure Humidity
    00:00 +1°C° 0 mm 3 mps 725 mmHg 59%
    01:00 0°C° 0 mm 3 mps 725 mmHg 59%
    02:00 0°C° 0 mm 3 mps 724 mmHg 59%
    03:00 0°C° 0 mm 3 mps 724 mmHg 59%
    04:00 0°C° 0 mm 3 mps 723 mmHg 57%
    05:00 0°C° 0 mm 3 mps 723 mmHg 56%
    06:00 0°C° 0 mm 3 mps 722 mmHg 55%
    07:00 0°C° 0 mm 3 mps 722 mmHg 52%
    08:00 +1°C° 0 mm 3 mps 722 mmHg 49%
    09:00 +2°C° 0 mm 3 mps 722 mmHg 46%
    10:00 +3°C° 0 mm 3 mps 721 mmHg 44%
    11:00 +4°C° 0 mm 3 mps 720 mmHg 42%
    12:00 +5°C° 0 mm 4 mps 719 mmHg 40%
    13:00 +5°C° 0 mm 4 mps 719 mmHg 40%
    14:00 +5°C° 0 mm 4 mps 719 mmHg 41%
    15:00 +5°C° 0 mm 4 mps 718 mmHg 41%
    16:00 +5°C° 0 mm 4 mps 719 mmHg 44%
    17:00 +4°C° 0 mm 4 mps 719 mmHg 47%
    18:00 +3°C° 0 mm 4 mps 720 mmHg 50%
    19:00 +3°C° 0 mm 4 mps 720 mmHg 51%
    20:00 +3°C° 0 mm 4 mps 721 mmHg 52%
    21:00 +3°C° 0 mm 4 mps 721 mmHg 52%
    22:00 +3°C° 0 mm 4 mps 721 mmHg 53%
    23:00 +3°C° 0 mm 4 mps 722 mmHg 54%

    24 January, Friday

    Time Temperature Precipitation Wind Pressure Humidity
    00:00 +3°C° 0 mm 4 mps 722 mmHg 55%
    01:00 +1°C° 0 mm 4 mps 722 mmHg 57%
    02:00 +1°C° 0 mm 4 mps 723 mmHg 59%
    03:00 +1°C° 0 mm 4 mps 723 mmHg 61%
    04:00 0°C° 0 mm 5 mps 723 mmHg 60%
    05:00 0°C° 0 mm 5 mps 724 mmHg 59%
    06:00 0°C° 0 mm 5 mps 724 mmHg 57%
    07:00 0°C° 0 mm 5 mps 725 mmHg 54%
    08:00 -1°C° 0 mm 6 mps 725 mmHg 52%
    09:00 -1°C° 0 mm 6 mps 726 mmHg 49%
    10:00 +1°C° 0 mm 6 mps 726 mmHg 47%
    11:00 +1°C° 0 mm 6 mps 726 mmHg 45%
    12:00 +2°C° 0 mm 6 mps 726 mmHg 43%
    13:00 +2°C° 0 mm 6 mps 727 mmHg 41%
    14:00 +2°C° 0 mm 6 mps 727 mmHg 40%
    15:00 +2°C° 0 mm 6 mps 727 mmHg 38%
    16:00 +2°C° 0 mm 5 mps 728 mmHg 40%
    17:00 +1°C° 0 mm 4 mps 729 mmHg 42%
    18:00 +1°C° 0 mm 3 mps 730 mmHg 45%
    19:00 0°C° 0 mm 4 mps 731 mmHg 46%
    20:00 0°C° 0 mm 4 mps 732 mmHg 47%
    21:00 -1°C° 0 mm 5 mps 732 mmHg 48%
    22:00 -1°C° 0 mm 5 mps 733 mmHg 49%
    23:00 -2°C° 0 mm 5 mps 733 mmHg 51%

    25 January, Saturday

    Time Temperature Precipitation Wind Pressure Humidity
    00:00 -2°C° 0 mm 5 mps 734 mmHg 52%
    01:00 -2°C° 0 mm 5 mps 734 mmHg 53%
    02:00 -3°C° 0 mm 4 mps 734 mmHg 55%
    03:00 -3°C° 0 mm 4 mps 734 mmHg 56%
    04:00 -3°C° 0 mm 4 mps 735 mmHg 57%
    05:00 -4°C° 0 mm 3 mps 735 mmHg 57%
    06:00 -3°C° 0 mm 2 mps 735 mmHg 58%
    07:00 -2°C° 0 mm 2 mps 735 mmHg 55%
    08:00 -2°C° 0 mm 3 mps 736 mmHg 52%
    09:00 -1°C° 0 mm 3 mps 736 mmHg 48%
    10:00 0°C° 0 mm 3 mps 736 mmHg 46%
    11:00 0°C° 0 mm 3 mps 735 mmHg 44%
    12:00 +1°C° 0 mm 3 mps 735 mmHg 42%
    13:00 +1°C° 0 mm 3 mps 734 mmHg 41%
    14:00 +3°C° 0 mm 2 mps 734 mmHg 39%
    15:00 +3°C° 0 mm 2 mps 734 mmHg 38%
    16:00 +2°C° 0 mm 2 mps 734 mmHg 41%
    17:00 +2°C° 0 mm 1 mps 734 mmHg 44%
    18:00 +2°C° 0 mm 1 mps 734 mmHg 47%
    19:00 +2°C° 0 mm 1 mps 734 mmHg 45%
    20:00 +1°C° 0 mm 1 mps 734 mmHg 44%
    21:00 +1°C° 0 mm 1 mps 734 mmHg 43%
    22:00 0°C° 0 mm 0 mps 734 mmHg 42%
    23:00 0°C° 0 mm 0 mps 734 mmHg 42%
    Show more